Regional Weather Roundup
Issued by NWS

Home | Current Version | Previous Version | Graphics & Text | Print | Product List | Glossary On
Versions: 1 2 3 4 5 6 7 8 9 10 11 12 13 14 15 16 17 18 19 20 21 22 23 24 25 26 27 28 29 30 31 32 33 34 35 36 37 38 39 40 41 42 43 44 45 46 47 48 49 50
000
ASUS43 KMPX 171201
RWRMN
WEATHER ROUNDUP FOR MINNESOTA
NATIONAL WEATHER SERVICE TWIN CITIES/CHANHASSEN MN
600 AM CST WED DEC 17 2014


NOTE: "FAIR" INDICATES FEW OR NO CLOUDS BELOW 12,000 FEET WITH NO
SIGNIFICANT WEATHER AND/OR OBSTRUCTIONS TO VISIBILITY. N/A MEANS
CURRENT SKY AND/OR WEATHER CONDITIONS ARE NOT AVAILABLE.

MNZ060>063-068>070-171300-
   Twin Cities Metro

CITY           SKY/WX    TMP DP  RH WIND       PRES   REMARKS
TWIN CITIES    PTCLDY    10   5  80 W7        30.31R WCI  -1
6HR MIN TEMP:   9; 6HR MAX TEMP:  17;

ST PAUL        CLOUDY    12   7  80 NW10      30.32R WCI  -1
CRYSTAL        CLEAR     10   6  84 W6        30.29R WCI   0
BLAINE         CLEAR     10   9  92 W5        30.29R WCI   2
LAKEVILLE      CLEAR      7   5  92 W8        30.30R WCI  -6
EDEN PRAIRIE   CLEAR      9   5  84 W6        30.29R WCI  -1
6HR MIN TEMP:   9; 6HR MAX TEMP:  15;

SOUTH ST PAUL  PTCLDY    11   8  85 W3        30.30R
LAKE ELMO      MOCLDY    12   9  85 W6        30.29R WCI   3
$$
MNZ001>005-007-008-013>017-022>024-027-028-171300-
   Northwest Minnesota

CITY           SKY/WX    TMP DP  RH WIND       PRES   REMARKS
BEMIDJI        FLURRIES   8   6  91 NW9       30.27S WCI  -6
HALLOCK        PTCLDY     0  -4  85 CALM      30.38S
ROSEAU         MOCLDY     3  -2  78 CALM      30.35R
WARROAD        CLOUDY     3   0  85 NW5       30.33S WCI  -6
THIEF RVR FALL PTCLDY     3   1  92 NW3       30.33S
CROOKSTON      PTCLDY     1   0  92 N6        30.37F WCI -10
FOSSTON        PTCLDY     0  -4  85 CALM      30.32S
DETROIT LAKES  PTCLDY     3   1  92 NW5       30.30S WCI  -6
MOORHEAD       PTCLDY     3   1  92 NW5       30.37S WCI  -6
PARK RAPIDS    PTCLDY     3   0  87 NW7       30.26S WCI  -9
MAHNOMEN       FAIR       2  -1  85 NW3       30.31S
$$
MNZ006-009>011-018-025>026-171300-
   North Central Minnesota

CITY           SKY/WX    TMP DP  RH WIND       PRES   REMARKS
BAUDETTE       CLOUDY    12   7  80 N8        30.30S WCI   0
FLAG ISLAND    MOCLDY     9   3  78 N8        30.32S WCI  -4
INTL FALLS     CLOUDY    13   8  81 N9        30.28R WCI   1
6HR MIN TEMP:  10; 6HR MAX TEMP:  13;

WASKISH        CLOUDY    12   9  85 CALM      30.29S
BIG FORK       FLURRIES  12   9  85 N5        30.26R WCI   4
LONGVILLE      FLURRIES  10   9  92 NW3       30.26R
GRAND RAPIDS   CLOUDY    10   7  85 N10       30.22S WCI  -3
CRANE LAKE     FLURRIES  10   7  85 N5        30.28R WCI   2
ORR            FLURRIES  10   7  85 CALM      30.22R
COOK           LGT SNOW  10   9  92 CALM      30.24R
WALKER         FLURRIES  10   8  88 CALM      30.26S
$$
MNZ012-019>021-037-171300-
   Northeast Minnesota

CITY           SKY/WX    TMP DP  RH WIND       PRES   REMARKS
DULUTH         LGT SNOW  12   6  77 NW10      30.18R WCI  -1
6HR MIN TEMP:  12; 6HR MAX TEMP:  14; 6HR PCP: TRACE;

ELY            LGT SNOW  10   7  85 NW6       30.20R WCI   1
HIBBING        LGT SNOW  12   6  77 N9        30.22R WCI   0
EVELETH        LGT SNOW  12   9  85 NW7       30.22R WCI   2
DULUTH HARBOR  CLOUDY    16  10  79 NW6       30.26S WCI   7
SILVER BAY     LGT SNOW  14   9  79 NW5       30.17S WCI   6
GRAND MARAIS     N/A     17   9  70 N10G17    30.19R WCI   5
G MARAIS ARPRT LGT SNOW  10   3  72 N9G17     30.11R WCI  -2
$$
MNZ029>031-032-039>041-046>048-054>057-064-171300-
   West Central Minnesota

CITY           SKY/WX    TMP DP  RH WIND       PRES   REMARKS
FERGUS FALLS   PTCLDY     0  -4  85 NW6       30.36S WCI -12
WHEATON        PTCLDY     1   0  92 NW6       30.37S WCI -10
MORRIS         LGT SNOW   7   1  78 NW10      30.33R WCI  -8
ALEXANDRIA     PTCLDY     6   3  87 NW7       30.29R WCI  -6
ELBOW LAKE     FAIR       1  -2  88 NW3       30.32S
WADENA         PTCLDY     3   1  92 NW6       30.27S WCI  -8
GLENWOOD       PTCLDY     3   1  92 W5        30.29S WCI  -6
APPLETON       MOCLDY     7   3  85 CALM      30.35S
BENSON         MOCLDY     7   1  78 N7        30.33S WCI  -5
ORTONVILLE     PTCLDY     7   1  78 NW6       30.34S WCI  -3
MADISON        PTCLDY    10   7  85 CALM      30.35S
WILLMAR        FAIR       9   3  78 NW10      30.33R WCI  -6
$$
MNZ033>034-036-042>043-049>051-058-059-171300-
   Central Minnesota

CITY           SKY/WX    TMP DP  RH WIND       PRES   REMARKS
ST CLOUD       CLEAR      9   4  80 W5        30.29R WCI   1
6HR MIN TEMP:   9; 6HR MAX TEMP:  12;

SAUK CENTRE    FAIR       5   2  88 NW5       30.29S WCI  -4
PAYNESVILLE    PTCLDY     2   1  92 SW7       30.30S WCI -10
AITKIN         MIX PCPN  12   7  79 CALM      30.24S
PINE RIVER     CLOUDY    12   9  85 NW6       30.28F WCI   3
BRAINERD       FAIR      10   7  87 NW7       30.26S WCI  -1
STAPLES        PTCLDY     7   5  92 NW6       30.27S WCI  -3
LONG PRAIRIE   FAIR       7   5  92 NW5       30.28R WCI  -2
LITTLE FALLS   PTCLDY    10   7  85 NW3       30.29R
LITCHFIELD     CLEAR      9   7  92 W7        30.31S WCI  -3
BUFFALO        PTCLDY     9   5  85 W3        30.31S
MAPLE LAKE     CLEAR      9   7  90 W3        30.31R
$$
MNZ037-044-045-052-053-171300-
   East Central Minnesota

CITY           SKY/WX    TMP DP  RH WIND       PRES   REMARKS
PRINCETON      CLOUDY    10   9  92 CALM      30.28R
MORA           PTCLDY    12   9  85 NW5       30.28R WCI   4
CAMBRIDGE      LGT SNOW  16   7  67 W5        30.26R WCI   9
RUSH CITY      CLEAR     12   8  82 NW3       30.27R
MOOSE LAKE     FLURRIES  10   7  85 NW3       30.22S
HINCKLEY       FLURRIES  12  10  92 CALM      30.26R
CLOQUET        LGT SNOW  10   7  85 NW8       30.21R WCI  -1
MCGREGOR       CLOUDY    12  10  92 NW7       30.25S WCI   2
$$
MNZ071>073-080-081-089-090-097-098-171300-
   Southwest Minnesota

CITY           SKY/WX    TMP DP  RH WIND       PRES   REMARKS
MONTEVIDEO     FAIR       5   3  92 CALM      30.35S
GRANITE FALLS  FLURRIES   6   4  89 W7        30.36S WCI  -5
CANBY          PTCLDY     6   3  88 W6        30.35S WCI  -5
MARSHALL       PTCLDY     5   0  78 NW5       30.33S WCI  -4
REDWOOD FALLS  CLEAR      6   3  87 W7        30.34R WCI  -6
OLIVIA         CLEAR      9   5  85 W5        30.33R WCI   0
PIPESTONE      LGT SNOW   7   5  92 CALM      30.28S
WINDOM         LGT SNOW   9   7  92 NW7       30.30F WCI  -3
WORTHINGTON    PTCLDY     9   7  92 NW7       30.29F WCI  -3
JACKSON        MOCLDY    10   7  85 NW9       30.30S WCI  -2
TRACY          FLURRIES   9   6  89 NW5       30.32F WCI   0
SLAYTON        PTCLDY     7   6  94 CALM      30.30S
$$
MNZ065>067-074>077-082>085-091>093-171300-
   South Central Minnesota

CITY           SKY/WX    TMP DP  RH WIND       PRES   REMARKS
MANKATO        CLEAR      9   1  72 W10       30.31S WCI  -6
NEW ULM        CLEAR      7   5  92 NW9       30.33S WCI  -7
ST JAMES       CLEAR     10   7  85 NW10      30.34R WCI  -3
FAIRMONT       CLEAR     10   5  79 NW9       30.30S WCI  -2
GLENCOE        CLEAR     10   7  89 NW8       30.31R WCI  -2
FARIBAULT      CLEAR      9   7  92 W7        30.30R WCI  -3
OWATONNA       FLURRIES   9   7  92 W7        30.29R WCI  -3
WASECA         LGT SNOW  10   7  85 W9        30.32R WCI  -2
ALBERT LEA     CLEAR     10   9  92 NW6       30.28S WCI   1
$$
MNZ078>079-086>088-094>096-171300-
   Southeast Minnesota

CITY           SKY/WX    TMP DP  RH WIND       PRES   REMARKS
ROCHESTER      LGT SNOW  13   9  84 W15       30.26R FOG     WCI  -3
6HR MIN TEMP:  13; 6HR MAX TEMP:  19; 6HR PCP: TRACE;

RED WING       CLOUDY    16  10  79 NW6       30.29R WCI   7
STANTON        CLEAR     11   7  83 W7        30.29R WCI   1
DODGE CENTER   LGT SNOW  12  10  92 CALM      30.26R
WINONA         CLOUDY    21  16  79 NW9       30.28R WCI  11
AUSTIN         FLURRIES  10   9  92 NW8       30.28R WCI  -1
PRESTON        FLURRIES  14  11  88 NW12      30.25S WCI   0
$$
ABBREVIATIONS USED IN REMARKS
   TC - TEMPERATURES IN CELSIUS
  WCI - WIND CHILL INDEX
   HX - HEAT INDEX
  VSB - VISIBILITY
$$


USA.gov is the U.S. government's official web portal to all federal, state and local government web resources and services.